Hourly Data Report for May 16, 2021

WIARTON A
ONTARIO
Current Station Operator: NAVCAN

44°44'39.000" N
81°06'31.000" W
221.90 m
6119499
71633
YVV

Download Data

Hourly Data (May 2021)
Hourly Data Report for May 16, 2021
TIME
LST
Temp Definition
°C
Dew Point Definition
°C
Rel Hum Definition
%
Precip. Amount Definition
mm

Wind Dir Definition
10's deg

Wind Spd Definition
km/h
Visibility Definition
km
Stn Press Definition
kPa
Hmdx Definition


Wind Chill Definition


Weather Definition


00:00 7.2 4.8 85   12 7 24.1 99.58     LegendNANA
01:00 6.1 4.2 88   13 10 24.1 99.57     Mainly Clear
02:00 6.1 4.3 88   13 10 24.1 99.55     LegendNANA
03:00 7.6 5.1 84   19 7 24.1 99.58     LegendNANA
04:00 7.8 4.6 80   15 5 24.1 99.58     Mostly Cloudy
05:00 7.4 4.0 79   19 4 24.1 99.60     LegendNANA
06:00 9.2 7.4 89   12 4 24.1 99.63     LegendNANA
07:00 10.8 7.0 77   13 4 24.1 99.71     Mostly Cloudy
08:00 13.0 6.9 66   15 7 24.1 99.73     LegendNANA
09:00 15.0 5.2 52   21 6 24.1 99.76     LegendNANA
10:00 15.4 8.1 62   27 13 24.1 99.78     Mostly Cloudy
11:00 16.6 6.8 52   28 11 24.1 99.77     LegendNANA
12:00 16.8 5.6 47   27 11 24.1 99.77     LegendNANA
13:00 17.1 5.9 47   26 13 24.1 99.77     Clear
14:00 17.4 4.5 42   27 16 24.1 99.78     LegendNANA
15:00 17.5 4.0 40   33 7 24.1 99.75     LegendNANA
16:00 18.3 5.1 41   26 10 24.1 99.69     Clear
17:00 17.8 4.2 40   28 14 24.1 99.67     LegendNANA
18:00 17.3 5.2 44   26 10 24.1 99.61     LegendNANA
19:00 16.0 5.6 50   26 6 24.1 99.62     Clear
20:00 13.1 5.4 59   20 5 24.1 99.64     LegendNANA
21:00 13.4 4.8 56   25 6 24.1 99.67     LegendNANA
22:00 8.9 5.9 81   12 10 24.1 99.68     Clear
23:00 8.0 5.8 85   12 12 24.1 99.68     LegendNANA

Notes on Data Quality.

Legend

  • E = Estimated
  • M = Missing
  • NA = Not Available*
  • [empty] = Indicates an unobserved value
Date modified: